TimeEDT,TemperatureF,Dew PointF,Humidity,Sea Level PressureIn,VisibilityMPH,Wind Direction,Wind SpeedMPH,Gust SpeedMPH,PrecipitationIn,Events,Conditions,WindDirDegrees,DateUTC
12:53 AM,75.9,70.0,82,30.06,10.0,East,16.1,-,N/A,,Clear,90,2013-04-10 04:53:00
1:53 AM,75.9,70.0,82,30.05,10.0,East,15.0,-,N/A,,Clear,90,2013-04-10 05:53:00
2:49 AM,75.2,71.6,89,30.04,10.0,East,11.5,-,N/A,,Mostly Cloudy,80,2013-04-10 06:49:00
2:53 AM,75.9,71.1,85,30.03,10.0,East,12.7,-,N/A,,Mostly Cloudy,80,2013-04-10 06:53:00
3:25 AM,75.2,71.6,89,30.03,10.0,East,12.7,-,0.00,,Overcast,90,2013-04-10 07:25:00
3:32 AM,75.2,71.6,89,30.03,10.0,East,12.7,-,0.00,,Overcast,90,2013-04-10 07:32:00
3:53 AM,75.9,72.0,87,30.01,10.0,East,11.5,-,0.00,,Mostly Cloudy,90,2013-04-10 07:53:00
4:18 AM,75.2,71.6,89,30.02,10.0,East,11.5,-,N/A,,Scattered Clouds,90,2013-04-10 08:18:00
4:53 AM,75.0,72.0,90,30.01,10.0,ENE,8.1,-,N/A,,Scattered Clouds,70,2013-04-10 08:53:00
5:11 AM,75.2,71.6,89,30.01,10.0,ENE,5.8,-,N/A,,Mostly Cloudy,60,2013-04-10 09:11:00
5:53 AM,75.9,72.0,87,30.01,10.0,East,10.4,-,N/A,,Scattered Clouds,100,2013-04-10 09:53:00
6:53 AM,75.9,72.0,87,30.01,10.0,East,12.7,-,N/A,,Partly Cloudy,100,2013-04-10 10:53:00
7:53 AM,77.0,73.0,88,30.01,10.0,ESE,11.5,-,N/A,,Scattered Clouds,110,2013-04-10 11:53:00
8:53 AM,80.1,73.0,79,30.02,10.0,ESE,13.8,-,N/A,,Scattered Clouds,110,2013-04-10 12:53:00
9:53 AM,82.0,73.9,76,30.03,10.0,ESE,16.1,-,N/A,,Scattered Clouds,120,2013-04-10 13:53:00
10:53 AM,82.9,73.9,74,30.04,10.0,ESE,15.0,-,N/A,,Scattered Clouds,110,2013-04-10 14:53:00
11:53 AM,82.9,73.9,74,30.04,10.0,ESE,15.0,21.9,N/A,,Scattered Clouds,120,2013-04-10 15:53:00
12:53 PM,84.0,75.0,74,30.03,10.0,ESE,13.8,-,N/A,,Mostly Cloudy,120,2013-04-10 16:53:00
1:53 PM,82.9,73.9,74,30.02,10.0,ESE,17.3,-,N/A,,Mostly Cloudy,110,2013-04-10 17:53:00
2:53 PM,82.9,73.9,74,30.00,10.0,ESE,18.4,-,N/A,,Mostly Cloudy,110,2013-04-10 18:53:00
3:53 PM,82.9,73.0,72,29.98,10.0,ESE,16.1,24.2,N/A,,Mostly Cloudy,110,2013-04-10 19:53:00
4:53 PM,82.9,73.9,74,29.96,10.0,East,19.6,24.2,N/A,,Mostly Cloudy,100,2013-04-10 20:53:00
5:53 PM,82.0,73.9,76,29.95,10.0,East,17.3,24.2,N/A,,Mostly Cloudy,100,2013-04-10 21:53:00
6:53 PM,80.1,73.0,79,29.95,10.0,East,18.4,26.5,N/A,,Scattered Clouds,100,2013-04-10 22:53:00
7:53 PM,78.1,73.0,84,29.95,10.0,East,17.3,26.5,N/A,,Scattered Clouds,90,2013-04-10 23:53:00
8:53 PM,78.1,73.0,84,29.97,10.0,East,16.1,-,N/A,,Scattered Clouds,100,2013-04-11 00:53:00
9:53 PM,78.1,73.0,84,29.98,10.0,ESE,17.3,-,N/A,,Scattered Clouds,110,2013-04-11 01:53:00
10:53 PM,77.0,73.0,88,30.00,10.0,ESE,16.1,-,N/A,,Partly Cloudy,120,2013-04-11 02:53:00
11:53 PM,77.0,73.0,88,29.99,10.0,ESE,13.8,-,N/A,,Clear,120,2013-04-11 03:53:00